CAPE
48 47 28 29 27 27 2 17 8 12 20 15 15 13 3 0 0 2 25 27 1 4 10 21 7 6 10 0 4 38 21 25 24 26 8 6 3 0 0 0 1 16 27 29 35 34 16 0 0 1 0 2 1 2
46 44 34 41 66 36 0 9 24 26 31 4 20 3 1 0 0 0 5 1 0 12 8 7 1 0 0 1 13 18 4 10 23 28 13 17 7 2 0 0 1 13 0 16 1 5 0 0 0 1 12 4 9 12
41 52 48 41 41 31 2 5 35 52 36 16 7 6 3 0 0 5 8 4 1 24 26 19 8 0 1 23 19 3 20 12 3 16 50 18 5 3 2 4 0 0 0 20 0 0 1 0 0 0 1 2 2 10
39 40 43 40 33 24 25 8 49 54 42 13 4 0 0 0 2 1 2 3 0 6 21 20 13 0 0 0 0 15 14 3 6 15 13 3 1 0 8 3 4 18 13 4 0 0 0 0 0 0 1 2 4 3
39 30 20 22 31 35 31 8 45 51 50 36 2 0 0 0 0 1 0 0 0 1 22 25 8 14 4 1 1 3 10 9 22 35 15 9 6 2 0 1 20 31 39 45 21 10 15 1 2 9 15 16 15 16
23 19 14 7 21 41 17 22 60 54 53 43 18 0 0 0 0 0 1 3 0 3 24 52 18 36 23 23 32 23 27 34 45 18 21 24 26 3 23 40 35 31 11 3 0 1 0 0 2 12 21 17 22 31
17 28 32 33 41 41 27 50 68 58 52 44 47 36 38 39 15 37 38 3 0 0 26 38 39 25 29 37 40 21 43 59 71 63 49 37 40 8 38 42 0 1 3 1 0 6 9 28 30 34 34 30 26 24
5 16 45 60 61 63 54 52 52 56 51 54 29 6 0 0 3 30 1 0 3 44 43 42 31 33 33 42 42 32 38 57 66 69 59 51 44 42 27 0 0 0 4 10 17 18 21 17 8 11 17 31 29 42
13 13 8 26 35 36 37 42 48 50 30 11 1 2 20 11 104 11 0 0 42 40 43 33 52 54 59 74 33 75 91 72 52 61 47 30 42 40 5 8 16 24 2 3 9 0 2 8 36 32 36 26 34 30
7 3 22 31 32 35 33 25 12 13 7 21 21 27 5 39 0 3 143 197 183 86 89 55 93 89 79 93 67 37 73 68 29 53 40 19 10 10 31 33 30 0 4 11 2 22 25 2 25 33 31 13 10 5
26 25 20 17 7 16 5 7 6 10 10 90 17 10 34 0 114 117 50 44 52 50 63 96 146 143 115 116 108 70 47 29 36 71 46 47 30 103 5 3 2 3 6 16 12 10 12 11 8 26 7 4 10 11
20 36 27 27 12 9 0 1 2 62 151 46 11 16 27 44 109 9 11 8 27 33 34 120 154 132 151 79 43 91 29 14 26 72 25 34 106 23 5 4 0 4 1 1 1 5 2 11 16 14 19 16 5 5
35 36 33 32 16 16 9 0 0 1 0 146 132 17 71 18 48 40 3 55 70 107 36 120 136 165 107 107 46 77 35 45 66 37 27 51 8 4 5 2 7 1 1 14 12 11 18 7 4 5 4 6 8 5
5 0 0 18 25 16 0 0 0 3 258 176 97 24 145 113 113 117 198 253 188 114 67 66 133 121 92 64 88 66 26 31 43 19 23 213 7 6 3 10 4 8 6 4 3 3 5 5 6 11 10 13 12 6
1 0 0 0 0 3 0 0 0 147 255 121 103 141 126 142 188 60 137 170 103 102 90 137 103 80 64 42 48 51 8 12 13 64 186 169 10 5 8 9 8 5 10 6 4 6 7 10 10 1 2 10 4 4
0 0 4 1 0 0 0 17 40 61 85 157 97 108 61 189 40 5 58 98 115 99 131 95 36 84 73 76 30 38 30 21 114 252 256 22 3 7 7 4 9 11 14 9 6 6 8 8 7 1 1 3 4 3
0 9 0 1 0 0 0 36 61 11 16 22 137 71 24 33 61 6 198 205 141 173 213 121 87 44 107 57 30 92 76 195 202 18 3 3 4 3 11 4 1 3 7 8 8 8 8 13 7 4 6 4 3 1
19 5 0 0 0 3 29 11 14 2 2 6 31 10 2 4 2 2 28 119 154 118 165 117 150 106 105 33 113 157 339 1 6 6 2 4 9 9 4 2 4 5 5 5 5 4 6 8 4 8 7 5 3 1
8 10 0 0 1 16 9 3 4 6 11 3 3 2 3 4 2 5 4 8 72 124 159 159 79 126 152 146 253 201 78 119 4 2 2 3 6 7 3 8 10 9 9 8 8 5 6 10 8 4 1 1 2 2
0 0 0 0 0 2 0 14 27 11 14 73 25 24 16 19 24 28 22 10 4 14 37 49 70 169 262 214 275 96 94 21 87 12 5 5 12 9 12 8 12 6 14 7 4 1 6 2 0 2 1 1 7 5
0 8 0 0 3 1 4 25 9 7 27 19 30 18 22 24 28 18 17 13 17 21 14 42 176 241 69 54 30 42 9 7 5 26 24 21 20 12 9 6 9 14 19 19 23 11 3 15 6 2 3 10 7 3
22 0 19 6 7 1 0 1 20 26 16 18 31 31 35 30 19 29 44 36 26 29 83 83 55 7 6 7 4 2 1 2 3 3 1 1 6 4 2 3 11 31 18 7 7 41 30 21 7 2 8 8 2 3
0 1 15 5 0 5 0 0 6 17 26 27 42 27 42 29 33 22 29 23 30 14 6 5 9 5 10 2 1 2 2 4 7 3 13 23 12 7 10 2 7 8 1 9 23 31 34 7 0 15 9 5 6 6
0 2 1 3 2 9 1 5 17 16 24 37 35 24 32 75 45 48 26 29 4 0 5 2 14 12 6 6 12 8 2 1 0 2 13 18 21 9 2 1 2 2 2 3 12 21 9 21 1 2 2 2 6 5
1 0 0 0 0 3 5 7 10 17 17 29 14 31 81 27 82 35 17 35 3 5 2 5 16 17 19 15 10 2 0 5 5 6 7 13 18 3 7 10 13 2 4 10 12 3 4 6 8 11 1 7 10 3
0 0 1 1 1 2 7 7 8 9 10 10 23 15 4 33 21 24 16 12 8 10 12 15 15 21 17 12 12 11 9 3 3 7 9 4 10 14 12 9 21 16 4 9 12 17 18 10 9 8 4 3 1 6
0 0 0 0 0 0 5 11 6 10 15 13 12 6 9 22 23 2 3 2 3 7 5 7 7 5 13 10 4 4 6 5 1 2 5 8 1 3 16 23 17 7 3 1 19 11 11 10 14 12 12 12 10 8
0 0 0 0 0 2 0 0 6 3 6 5 3 6 6 17 11 8 7 3 1 2 4 5 6 7 7 9 12 7 8 10 4 0 2 8 5 5 3 3 1 0 1 4 69 67 21 21 20 11 15 21 16 12
0 0 0 0 0 1 3 3 1 5 3 6 9 8 12 3 6 8 6 4 4 5 6 9 11 14 11 13 10 12 10 12 13 6 7 13 15 14 9 2 1 1 1 1 2 0 7 9 19 14 20 16 21 14
0 0 0 0 0 0 0 3 8 9 2 1 2 0 1 4 28 10 6 9 14 17 15 13 11 11 8 16 20 14 8 9 7 10 23 24 19 8 7 3 1 1 1 3 3 2 0 10 19 23 19 22 16 20
0 0 0 0 0 0 2 3 5 3 2 0 1 4 2 8 16 14 13 16 17 13 15 13 13 12 11 10 13 15 8 7 3 3 3 8 9 9 8 4 6 4 4 6 4 3 1 1 5 15 14 20 25 25
1 0 0 0 0 5 0 1 2 5 7 12 13 15 14 13 14 11 10 11 12 13 9 10 16 13 9 4 2 2 1 4 5 3 3 4 7 6 4 5 7 7 7 5 5 3 1 1 1 9 5 8 27 30
1 1 0 0 0 0 3 0 0 1 4 6 6 11 13 15 5 4 5 9 13 12 13 13 17 19 4 4 5 4 2 3 0 0 0 0 0 0 0 4 7 8 6 8 10 9 4 2 1 1 4 2 9 31
CIN
0 0 0 0 0 0 0 0 -1 0 0 0 0 0 -3 0 0 0 0 -2 0 0 0 0 0 0 0 0 0 0 0 0 0 0 0 -1 0 0 0 0 0 0 0 0 0 0 0 0 0 0 0 -1 0 0
0 0 0 -3 -9 -7 0 0 0 0 0 0 0 0 0 0 0 0 0 -5 0 0 0 0 0 -1 0 0 -2 0 0 0 0 0 0 0 0 0 0 0 0 0 0 0 0 0 0 0 0 0 0 0 0 0
0 0 -1 -8 -12 -11 -2 -1 0 0 0 0 0 0 0 0 0 -1 0 -3 0 0 0 0 0 0 -4 0 -2 -1 0 0 0 0 0 0 0 0 0 0 0 0 0 0 0 0 0 0 0 0 0 0 0 0
0 0 -1 -1 -1 -10 -3 -1 0 0 0 0 0 0 0 0 -9 -1 0 -1 0 0 0 0 0 0 0 0 0 0 -6 0 0 0 0 0 0 0 0 0 0 0 -1 0 0 0 0 0 0 0 0 0 0 0
0 0 0 0 -5 -20 0 -3 0 0 0 0 0 0 0 0 0 0 0 0 0 -1 0 0 -1 0 0 0 0 -3 -2 -3 0 0 0 0 0 -1 0 0 0 -1 0 0 0 0 -1 0 0 0 0 0 0 0
-1 0 -1 -16 -38 -9 -1 -1 0 0 0 0 0 0 0 0 0 0 0 -5 0 0 0 0 0 0 0 0 0 0 0 0 0 0 0 0 0 0 0 0 -1 0 -1 0 0 0 0 0 0 0 0 0 0 0
0 0 0 0 -1 0 0 0 0 0 0 0 0 -4 -4 -5 -6 -1 0 -1 0 -3 0 0 0 0 0 0 0 0 0 0 0 0 0 0 0 0 0 0 0 0 0 0 0 0 0 0 0 0 0 0 0 0
-7 0 0 0 0 0 -1 0 -1 -3 0 0 -1 -2 0 -3 -2 0 0 -12 -23 -2 0 0 0 0 -1 0 0 0 0 0 0 0 0 0 0 0 0 0 0 0 0 0 0 0 0 0 0 0 0 0 0 0
-3 -1 -5 -1 -1 -1 -1 -3 0 0 0 -1 -8 -18 -2 0 0 0 0 0 -12 0 0 0 0 0 0 0 0 0 0 0 0 0 0 0 0 0 0 0 0 0 -1 0 0 0 0 0 0 0 0 -2 -1 0
0 0 0 -6 -5 -3 0 0 0 0 -1 -5 -1 0 0 0 -1 0 -1 -1 0 0 0 0 0 0 0 0 0 0 0 0 0 0 0 0 0 0 0 -1 -1 -1 -1 0 0 0 0 0 0 0 -3 -1 -2 0
0 0 0 0 -3 -1 -13 -7 -4 -10 -19 -1 0 0 0 -1 0 0 -7 -4 0 0 0 0 0 0 0 0 0 0 0 0 0 0 0 0 0 -4 -4 0 0 0 0 0 0 0 0 0 0 0 -2 0 0 0
-7 0 0 0 0 0 0 -2 -37 -5 0 -6 0 -35 -21 -15 0 -16 -13 -12 -3 -2 -2 0 0 0 0 0 -1 -1 0 -3 0 0 -2 0 -3 0 0 0 0 0 0 0 0 0 0 0 0 0 0 0 0 0
0 0 0 -1 0 0 -1 0 0 -8 0 -2 0 -30 -5 -20 -6 -8 0 0 0 0 0 0 0 0 0 0 0 0 0 0 0 -1 -1 0 0 0 0 0 0 0 0 0 0 0 0 0 0 0 0 0 0 0
-2 0 0 -3 -7 -10 -2 0 0 -1 0 0 -1 -29 -1 -1 0 0 0 0 0 0 0 0 0 0 0 0 0 0 -1 0 0 -8 -4 0 0 0 0 0 0 0 0 0 0 0 0 0 0 0 0 0 0 0
-13 -19 -1 0 -3 -16 -2 0 0 0 0 0 -1 -2 -4 -3 -7 -7 -5 0 0 0 0 0 0 0 0 -7 0 0 -6 -3 -2 -1 0 0 0 0 0 0 0 -1 0 0 0 0 0 0 0 0 0 0 0 0
0 0 0 -11 0 0 0 -18 -2 -3 -4 0 -2 -9 -25 0 -31 0 -26 -7 -2 -1 0 0 0 0 0 0 -1 -5 0 -1 0 0 0 -16 0 0 0 0 0 0 0 0 0 0 0 0 0 0 0 0 0 0
0 0 0 -18 0 0 0 -13 0 -9 -15 -4 -2 -33 -3 -37 -51 -11 -1 0 -2 0 0 0 0 0 0 0 0 0 0 -1 -18 -45 -4 0 0 0 0 0 0 0 0 0 0 0 0 0 0 0 0 0 0 0
0 0 0 0 0 -1 0 0 0 0 0 -9 -11 -11 0 0 0 0 -20 0 0 0 0 0 0 0 0 -3 0 0 -1 0 -46 0 0 0 0 0 0 0 0 0 0 0 0 0 0 0 0 0 0 0 0 0
0 0 0 0 0 0 0 0 0 0 0 0 0 -1 0 0 0 0 0 0 -18 -1 0 0 0 0 0 0 -1 -14 -29 -11 0 0 0 0 0 0 0 0 0 0 0 0 0 0 0 0 0 0 -1 0 0 0
0 0 0 0 0 0 0 0 0 0 0 0 0 -4 0 0 0 0 0 0 0 0 -15 -9 -3 0 0 -1 0 -16 -10 -34 -7 0 0 0 0 0 0 0 0 0 0 0 0 -1 0 0 0 0 0 -1 0 0
0 -1 0 0 0 0 0 0 0 0 0 0 -1 0 0 0 0 0 0 0 0 0 -5 -6 0 0 0 -8 -25 -16 -15 0 0 -7 -24 0 0 0 0 0 0 0 0 0 0 0 0 0 0 -1 -1 0 0 0
-1 0 0 -3 0 0 0 0 0 0 0 0 0 0 0 0 0 0 0 0 0 -2 -7 -4 -1 0 0 0 0 0 -2 0 0 0 0 0 -1 0 0 0 0 0 0 -1 -1 0 0 0 0 0 0 0 0 0
0 -1 0 0 0 -1 0 0 0 0 0 0 0 0 0 -1 -2 0 0 0 0 0 0 0 0 0 0 0 0 -1 0 0 0 0 0 0 0 0 0 0 0 0 0 0 0 0 0 0 0 0 0 0 0 0
0 0 0 0 0 0 0 0 0 0 0 0 0 0 0 0 -2 0 0 0 0 0 0 0 0 0 0 0 0 0 0 -1 0 0 0 0 0 0 0 0 0 0 0 0 -1 0 -1 0 0 -1 0 0 0 0
0 0 0 0 0 0 0 0 0 0 0 0 -1 0 -2 0 0 0 -1 0 0 0 0 0 0 0 0 0 0 0 0 0 0 0 0 0 0 0 0 0 0 0 -1 0 0 0 0 0 0 0 0 0 0 0
0 0 0 0 0 0 0 0 0 0 0 0 0 0 0 0 0 0 -2 0 0 0 0 0 0 0 0 0 0 0 0 0 0 0 0 0 0 0 0 0 0 0 0 0 0 0 0 0 0 0 0 0 0 0
0 0 0 0 0 0 0 0 0 0 0 0 0 0 0 0 0 -2 0 0 0 0 0 0 0 0 0 0 0 0 0 0 0 0 0 0 -3 -1 0 0 0 0 0 0 0 0 0 0 0 0 0 0 0 0
0 0 0 0 0 0 0 0 0 0 0 0 0 0 0 0 -1 0 0 0 0 0 0 0 0 0 0 0 0 0 0 0 0 0 0 0 0 0 0 0 0 0 0 0 0 0 0 0 0 0 0 0 0 0
0 0 0 0 0 0 0 0 0 0 0 0 0 0 0 0 0 0 0 0 0 0 0 0 0 0 0 0 0 0 0 0 0 0 0 0 0 0 0 0 0 0 -1 0 0 0 0 0 0 0 0 0 0 0
0 0 0 0 0 0 0 0 0 0 0 0 0 0 0 0 0 -1 0 0 0 0 0 0 0 0 0 0 0 0 0 0 0 0 0 0 0 0 0 0 0 0 0 0 0 0 0 -2 -1 0 0 0 0 0
0 0 0 0 0 0 0 0 0 0 0 0 0 0 0 0 0 0 0 0 0 0 0 0 0 0 0 0 0 0 0 0 0 0 0 0 0 0 0 0 0 0 0 0 0 0 0 0 0 0 0 0 0 0
0 0 0 0 0 0 0 0 0 0 0 0 0 0 0 0 0 0 -2 0 0 0 0 0 0 0 0 0 0 0 0 0 0 0 0 0 0 0 0 0 0 0 0 0 0 0 0 0 0 0 0 0 0 0
0 0 0 0 0 0 0 0 0 0 0 0 0 0 0 0 0 0 0 0 0 0 0 0 0 0 0 0 0 0 0 0 0 0 0 0 0 0 0 0 0 0 0 0 0 0 0 0 0 0 0 0 0 0
Wind_Speed
24 22 20 19 16 10 5 1 2 6 10 13 17 18 17 18 18 9 7 6 6 6 9 13 18 18 17 13 13 18 10 6 8 8 4 3 6 7 8 13 15 13 11 8 10 11 16 3 6 18 13 10 14 11
22 21 21 18 14 7 4 3 6 8 12 14 16 17 16 15 15 8 7 7 8 9 8 15 14 12 2 18 16 16 5 17 6 7 2 4 5 5 9 8 17 12 8 9 8 9 6 7 12 11 12 18 16 17
22 20 19 18 11 3 10 7 9 12 17 19 17 17 15 14 11 11 10 9 10 10 8 6 9 12 13 11 13 10 8 6 8 4 6 3 5 7 7 10 12 11 3 8 7 12 17 19 17 18 19 21 21 18
22 20 17 14 11 4 13 10 13 15 20 19 17 15 15 15 13 14 9 6 6 6 6 7 7 9 6 9 5 5 13 5 9 7 4 4 3 4 5 4 8 6 11 11 18 17 16 17 17 16 17 17 17 17
21 19 18 15 9 7 18 15 16 17 21 20 17 13 12 13 13 12 10 10 6 3 6 7 14 9 7 7 10 10 11 11 6 4 3 4 2 4 3 3 5 6 10 11 13 15 15 14 15 17 18 20 20 20
22 22 21 17 6 19 22 19 19 19 22 20 17 15 11 4 4 6 6 8 8 9 7 5 5 8 8 7 9 9 7 5 4 2 3 3 5 2 3 6 7 10 8 11 15 15 16 18 19 20 20 20 20 17
23 22 23 23 25 25 22 22 20 22 23 21 17 14 10 14 10 5 5 5 5 2 5 6 6 5 9 8 4 4 5 3 3 3 3 3 5 5 3 8 11 11 13 12 12 14 16 18 17 17 16 18 15 16
23 22 21 21 22 22 22 21 22 23 24 20 18 17 14 7 5 7 7 7 8 5 4 4 5 5 9 5 4 1 4 4 3 3 1 4 3 3 4 7 6 6 5 8 11 11 15 14 14 15 14 13 14 14
23 21 21 20 21 21 21 22 24 27 26 24 19 13 6 7 4 3 8 7 4 4 3 4 9 6 6 3 3 4 4 4 3 4 4 2 5 7 6 7 7 5 2 9 9 9 10 10 13 12 12 9 9 8
30 30 24 20 20 21 25 28 28 27 23 14 4 4 4 3 6 5 6 4 5 3 2 3 4 5 7 5 3 2 3 4 4 5 4 3 9 13 8 5 8 3 5 7 5 10 6 9 13 9 8 7 6 6
21 23 24 25 23 23 26 25 22 17 7 2 4 4 5 2 2 3 2 1 1 2 3 3 5 8 4 7 5 1 2 2 4 5 5 5 4 5 6 2 4 2 4 3 3 5 5 6 9 6 3 3 3 3
17 22 22 22 18 16 15 9 6 3 3 6 9 5 2 1 0 3 2 1 4 1 3 6 6 5 4 3 2 3 3 3 2 5 3 4 5 6 5 4 4 5 6 3 4 3 3 6 5 5 5 4 4 4
13 15 18 19 18 19 15 10 5 11 15 5 2 3 0 2 2 3 4 3 1 4 3 6 5 4 3 3 2 2 3 3 5 3 4 0 9 6 7 6 7 6 4 4 5 4 4 6 6 5 4 4 3 4
13 13 14 15 15 15 11 9 7 6 5 2 1 2 3 2 3 3 5 5 4 3 6 8 4 3 3 3 3 4 1 3 4 5 6 6 9 8 7 7 7 6 4 3 4 3 4 4 4 3 4 4 4 5
10 10 9 12 12 13 14 9 9 3 3 3 3 2 1 2 4 4 3 2 2 4 6 7 3 2 2 3 1 3 4 5 6 2 3 6 9 9 8 7 6 5 4 3 3 3 2 2 2 3 3 4 4 4
11 10 5 12 9 11 13 8 4 4 2 2 1 1 1 1 2 1 1 3 3 5 5 4 3 4 4 4 5 6 4 5 2 5 5 7 9 9 9 7 5 4 5 5 4 3 4 2 2 3 2 1 2 3
10 1 9 10 7 8 7 5 3 3 3 3 1 1 3 1 2 1 4 3 5 7 6 3 5 5 4 4 5 5 4 2 5 5 4 7 9 9 8 7 6 6 5 5 5 4 3 4 4 3 3 2 3 1
3 5 3 8 8 3 1 2 2 3 3 2 3 1 2 1 1 2 3 3 5 7 6 3 2 5 4 6 7 3 5 3 4 5 5 7 9 10 9 9 8 7 6 6 6 5 5 5 5 4 3 2 2 3
8 7 5 5 6 5 2 3 2 3 2 1 3 3 3 1 3 2 2 4 4 5 3 3 5 6 7 3 1 2 4 4 4 4 5 7 8 10 9 7 7 6 6 7 7 4 4 6 4 3 2 1 2 2
6 4 4 3 4 3 4 3 2 3 3 3 3 3 2 2 2 3 4 4 3 3 5 4 5 5 4 1 3 5 4 2 5 5 5 7 8 11 10 7 5 5 5 4 4 4 4 3 3 2 1 1 2 0
6 4 3 5 4 4 4 2 4 3 2 3 2 4 3 3 4 4 3 4 4 4 6 7 7 3 2 1 2 3 3 4 6 6 6 7 7 7 7 6 5 4 5 5 5 5 5 3 2 2 2 3 2 1
2 5 3 2 4 4 4 3 3 1 3 2 3 4 3 3 5 5 4 7 5 7 6 4 4 3 4 6 5 5 3 4 4 2 2 5 5 4 4 4 5 6 4 4 5 5 4 3 3 3 4 3 3 3
5 3 2 3 3 4 3 1 6 5 5 4 3 4 4 4 4 6 4 6 4 2 3 4 6 5 4 5 4 5 6 6 4 5 4 3 4 4 4 4 3 3 4 4 4 4 4 4 5 4 4 5 4 4
3 1 1 2 3 2 2 3 3 4 4 7 6 8 6 5 6 5 6 5 3 3 5 7 5 5 5 7 7 7 6 4 3 3 4 5 5 4 3 2 2 2 2 2 2 2 4 4 6 6 6 5 5 5
4 2 3 4 3 4 4 4 3 4 5 7 7 9 2 2 5 6 9 4 4 3 3 3 5 6 6 7 5 5 3 4 5 5 4 4 4 4 3 3 3 2 0 2 3 4 4 4 5 5 7 6 7 6
6 4 4 5 3 4 3 4 5 3 2 3 4 4 3 4 7 7 3 5 3 1 1 3 3 3 3 2 4 4 4 2 2 3 4 4 4 4 4 4 5 4 2 2 2 0 4 6 6 8 8 9 9 8
6 6 4 1 1 1 3 3 3 4 4 5 2 2 3 6 7 4 2 2 2 3 3 4 4 4 4 2 2 2 2 1 4 1 3 2 1 2 2 3 3 4 2 1 1 1 3 3 5 7 7 7 8 9
3 5 6 5 4 2 3 3 4 5 4 2 2 5 5 4 3 3 3 2 1 3 4 4 4 4 4 3 2 1 3 3 2 2 2 1 2 2 2 2 3 2 1 1 2 2 2 3 4 3 6 8 8 9
4 4 5 4 3 4 5 5 4 3 2 3 4 4 3 1 2 1 2 3 3 4 5 6 5 4 4 5 4 3 3 4 7 10 12 8 7 5 4 3 2 1 1 3 4 3 3 4 5 5 5 5 5 7
5 5 4 5 4 6 4 3 3 1 3 4 4 7 8 8 7 4 5 6 7 7 7 6 4 5 6 6 5 5 2 1 2 3 7 10 6 7 5 3 2 2 2 3 3 4 6 6 6 5 6 5 5 7
4 4 4 4 4 2 2 2 3 5 5 6 8 10 11 10 9 7 8 8 8 6 6 7 7 6 6 6 5 5 4 3 3 5 5 4 4 4 3 1 1 2 3 3 4 5 6 6 6 7 6 7 6 7
4 5 4 4 2 3 2 3 4 7 8 9 8 7 6 4 8 7 4 5 7 7 8 8 6 5 4 0 2 3 5 3 3 3 5 3 3 4 2 2 2 3 3 4 6 7 7 8 7 8 7 7 8 9
3 3 2 2 2 3 2 3 4 4 5 5 5 5 6 6 7 2 3 5 6 6 6 5 4 2 4 4 3 3 3 3 4 3 3 3 3 3 4 4 4 4 5 6 7 7 9 10 9 10 10 11 10 8
Wind_Direction
332 328 327 324 320 308 316 300 102 88 102 78 84 79 69 59 57 69 55 17 109 90 65 115 126 134 136 134 136 141 126 191 193 191 160 130 165 194 169 168 177 180 184 193 229 243 251 237 226 237 255 297 304 285
333 331 323 318 314 308 227 188 142 118 114 95 95 80 74 68 51 47 75 47 59 64 91 89 68 45 91 151 123 169 150 161 165 186 169 136 180 154 185 177 170 198 199 202 199 221 224 205 253 263 243 261 275 293
334 329 325 323 325 351 175 161 146 127 121 110 98 89 80 83 73 78 88 100 89 92 71 64 77 59 50 86 145 160 138 135 180 125 120 138 169 179 177 205 183 217 230 212 257 237 248 260 265 271 273 273 277 277
336 332 330 325 316 292 158 148 142 132 128 117 110 98 88 75 61 83 76 89 108 104 92 80 97 61 74 89 100 167 110 137 120 142 131 154 166 228 207 201 213 202 180 221 249 265 275 273 273 279 283 287 289 290
345 347 335 319 286 192 147 145 138 133 134 124 116 106 91 83 83 84 71 51 16 78 103 106 88 63 86 100 106 118 132 146 148 133 155 193 170 118 215 256 244 207 229 243 259 271 275 280 294 303 293 288 288 290
358 357 354 342 145 135 135 135 134 131 133 126 121 118 105 86 36 50 48 33 28 104 103 95 117 99 92 105 128 139 144 169 112 177 176 142 88 197 244 236 227 234 252 275 275 285 287 291 288 285 281 281 281 297
13 18 34 56 91 111 120 125 127 128 131 127 115 118 87 45 43 41 49 50 341 111 94 109 113 84 95 84 76 106 116 111 168 149 201 217 167 178 253 252 261 269 273 278 291 299 285 286 292 292 301 296 298 289
22 33 49 71 88 100 111 117 119 125 127 117 99 81 62 80 86 60 47 11 333 70 66 103 95 128 191 143 129 277 151 160 183 159 187 225 203 173 254 256 268 274 264 284 292 300 296 304 296 284 280 271 265 258
36 46 52 71 87 97 103 109 112 113 109 103 95 70 42 27 39 65 318 294 34 30 106 147 157 141 140 111 107 178 199 177 149 200 198 198 219 220 232 250 257 293 277 285 296 300 280 294 291 275 256 282 296 325
48 47 53 61 79 92 102 106 107 110 108 105 69 54 56 51 137 241 8 22 6 357 33 126 108 125 163 162 117 125 211 145 160 194 125 235 253 252 245 305 49 35 290 305 302 287 326 320 319 332 3 8 343 323
47 55 53 56 66 97 110 114 119 124 160 84 55 42 125 314 257 53 59 123 180 196 150 104 124 144 164 173 128 132 164 147 197 157 209 216 222 134 105 93 70 349 1 6 301 303 299 306 295 302 336 23 355 337
39 54 56 64 65 55 73 87 42 309 3 74 112 163 179 333 105 81 54 68 241 111 140 152 112 104 112 94 115 177 131 207 211 142 208 246 94 126 116 100 79 65 51 49 41 24 36 39 36 43 39 38 21 12
56 45 45 53 66 65 56 40 101 123 140 165 129 87 273 10 135 216 163 215 175 119 185 146 135 102 153 141 120 139 161 167 145 193 231 320 134 145 116 130 109 102 132 139 99 86 88 70 50 45 59 34 20 32
34 30 34 37 39 39 34 28 351 296 278 331 105 89 309 146 271 18 24 53 57 100 167 163 125 95 192 140 172 130 119 165 219 227 220 143 148 135 141 138 144 157 123 95 82 68 72 79 78 53 41 24 27 31
356 1 358 14 12 17 8 343 320 305 341 354 335 14 68 48 41 28 25 97 70 151 160 130 121 117 114 98 201 137 170 238 222 258 75 136 140 147 155 148 142 147 156 150 135 133 124 123 110 80 48 32 34 26
326 305 1 339 346 356 354 319 324 328 323 307 339 240 36 219 129 120 213 111 155 158 170 187 151 161 189 165 181 211 216 235 98 115 121 141 148 152 156 149 157 164 176 162 152 161 160 160 152 126 93 47 21 25
302 321 4 352 359 334 333 320 334 309 304 286 73 16 315 314 15 134 207 151 171 189 198 188 187 193 141 201 212 206 234 20 123 134 146 156 162 163 145 149 175 186 182 181 179 188 162 171 178 209 231 227 275 343
266 97 3 346 330 312 326 313 279 269 252 250 264 278 256 84 209 213 229 210 193 216 232 256 289 205 213 218 227 189 101 118 131 144 156 161 162 164 168 171 183 182 177 186 199 200 206 207 217 225 237 214 252 276
10 350 7 319 322 304 260 204 232 273 264 233 246 214 188 192 224 313 201 256 316 340 297 245 236 241 235 223 113 74 140 150 156 160 166 171 174 178 186 181 162 190 186 186 200 206 213 216 218 201 148 156 318 3
282 329 341 325 295 254 240 197 214 232 251 205 205 213 219 227 160 171 202 192 212 240 224 231 256 296 315 91 126 167 174 149 158 168 179 183 182 183 197 184 193 188 194 209 215 224 228 224 235 253 89 104 179 157
224 80 238 244 211 246 283 211 211 253 286 267 189 183 212 178 221 198 216 173 201 224 231 239 248 223 358 75 194 203 172 201 205 212 188 187 190 195 200 205 160 189 200 210 226 202 227 231 215 137 152 105 114 148
52 326 274 140 256 217 250 231 294 225 236 255 229 210 185 201 206 202 188 195 236 231 238 261 262 165 204 211 209 215 157 189 182 137 95 133 149 166 185 178 187 199 209 223 234 214 223 214 162 160 131 145 159 155
279 236 235 241 241 247 259 287 234 213 222 230 217 220 212 194 201 154 225 224 237 239 209 236 239 216 210 149 172 198 202 204 182 168 153 141 141 167 188 190 195 197 233 250 252 213 201 173 139 136 140 164 163 158
204 340 263 240 246 255 297 252 272 274 248 246 250 245 242 200 164 213 234 206 124 128 215 218 218 182 169 187 196 193 188 197 156 147 188 171 175 186 170 200 216 243 272 267 264 190 150 160 140 173 177 178 181 186
235 187 244 214 238 225 222 219 236 255 255 258 280 264 7 312 228 226 227 166 150 201 208 245 218 209 211 199 190 150 177 216 196 185 190 222 189 154 166 189 149 109 230 233 194 149 149 154 175 176 187 188 192 198
236 177 221 194 197 225 206 227 204 237 296 264 255 331 318 279 258 269 30 44 51 44 0 353 339 213 208 196 167 158 169 171 199 217 204 199 232 182 196 211 190 140 75 34 25 124 192 181 187 195 202 200 196 197
224 194 188 200 252 216 259 250 256 241 231 231 238 275 257 248 249 65 84 60 331 33 325 324 320 315 341 108 97 74 82 105 260 20 36 111 54 334 316 219 191 106 123 109 76 2 325 320 213 205 205 196 197 202
227 188 185 182 203 201 209 268 232 231 230 115 218 220 242 270 12 66 43 80 303 293 289 283 280 282 284 292 291 247 221 201 204 251 261 207 150 139 122 89 95 72 223 245 350 316 300 308 307 305 229 216 201 195
186 169 145 164 204 206 221 214 243 229 179 197 221 240 250 73 54 268 264 268 266 268 269 266 262 242 256 235 222 224 236 232 212 204 208 206 183 177 160 163 165 170 259 269 231 236 281 285 281 277 277 273 233 195
165 178 172 160 194 214 217 217 256 219 249 272 294 284 272 260 263 235 255 258 255 255 258 259 260 250 257 237 215 181 159 315 308 308 230 215 176 128 146 166 195 232 264 276 284 285 278 266 250 239 242 236 226 204
133 181 182 192 232 235 299 29 279 250 250 256 255 260 271 289 298 269 246 249 253 248 247 243 238 235 242 235 236 203 175 117 63 49 30 56 85 98 99 102 269 275 280 280 274 269 267 270 268 267 261 251 229 208
177 187 173 205 242 130 246 247 267 265 265 247 250 249 255 252 273 269 180 218 222 229 232 240 240 229 207 259 42 62 42 91 99 58 43 33 34 41 356 304 284 268 274 280 279 271 266 260 264 267 265 267 244 219
141 178 191 236 226 232 148 272 259 272 257 259 274 267 270 268 259 272 126 214 224 223 223 214 224 161 160 182 164 124 117 99 84 78 64 23 347 335 312 290 285 280 278 273 272 270 267 263 261 263 264 257 263 234